Flag for U.S.A. Weather past 2 weeks in Tucson, Arizona, U.S.A.

Now
87 °F

Sunny.


Feels Like: 83 °F
Forecast: 61 / 87 °F
Wind: 10 mph from Northwest

Location: Davis-Monthan Air Force Base

Current Time: Mar 31, 2015 at 4:01:27 PM

Latest Report: Mar 31, 2015 at 2:58 PM


Visibility: 10 mi

Pressure: 29.79 "Hg

Humidity: 13%

Dew point: 31 °F

Location of TucsonLocation

Historic Weather in Tucson — Graph

°F

Tucson temperature yesterday

Maximum temperature yesterday: 89 °F (at 3:58 PM)
Minimum temperature yesterday: 60 °F (at 4:58 AM)
Average temperature yesterday: 76 °F

Past Weeks' High & Low Weather Summary

 TemperatureHumidityPressure
High90 °F (Mar 29, 2:58 PM)100% (Mar 19, 12:58 AM)30.12 "Hg (Mar 19, 12:58 AM)
Low49 °F (Mar 21, 5:58 AM)4% (Mar 27, 4:58 PM)29.79 "Hg (Mar 31, 2:58 PM)
Average68 °F35%29.96 "Hg
* Reported Mar 16 2:58 PM — Mar 31 2:58 PM, Tucson, Weather by CustomWeather, © 2015

Note: Actual official high and low records may vary slightly from our data, if they occured in-between our weather recording intervals... More about our weather records

Advertising

Tucson weather history for previous 24 hours

 ConditionsComfort  
Time TempWeatherWind HumidityBarometerVisibility
2:58 PM
Tue, Mar 31
87 °FSunny.10 mph13%29.79 "Hg10 mi
1:58 PM87 °FSunny.8 mph13%29.84 "Hg10 mi
12:58 PM85 °FPassing clouds.7 mph14%29.87 "Hg10 mi
11:58 AM82 °FSunny.5 mph16%29.90 "Hg10 mi
10:58 AM82 °FSunny.2 mph18%29.92 "Hg10 mi
9:58 AM79 °FSunny.6 mph22%29.93 "Hg10 mi
8:58 AM75 °FSunny.8 mph27%29.94 "Hg10 mi
7:58 AM70 °FSunny.7 mph32%29.94 "Hg10 mi
6:58 AM63 °FSunny.2 mph37%29.92 "Hg10 mi
5:58 AM63 °FClear.3 mph38%29.91 "Hg10 mi
4:58 AM63 °FClear.9 mph35%29.90 "Hg10 mi
3:58 AM65 °FClear.8 mph31%29.89 "Hg10 mi
2:58 AM66 °FClear.10 mph30%29.90 "Hg10 mi
1:58 AM69 °FPassing clouds.7 mph26%29.89 "Hg10 mi
12:58 AM67 °FClear.8 mph27%30.01 "Hg10 mi
11:58 PM
Mon, Mar 30
72 °FPassing clouds.6 mph23%30.02 "Hg10 mi
10:58 PM73 °FPassing clouds.6 mph21%29.89 "Hg10 mi
9:58 PM76 °FClear.1 mph20%29.88 "Hg10 mi
8:58 PM76 °FClear.2 mph20%29.89 "Hg10 mi
7:58 PM79 °FPassing clouds.No wind16%29.87 "Hg10 mi
6:58 PM82 °FPassing clouds.8 mph14%29.87 "Hg10 mi
5:58 PM85 °FScattered clouds.14 mph11%29.85 "Hg10 mi
4:58 PM87 °FPassing clouds.14 mph11%29.85 "Hg10 mi
Weather by CustomWeather, © 2015

See weather overviewHow to use our weather pages